When you browse on this site, cookies collect data to enhance your experience and personalize the content and advertising you see.
Visit our Privacy Policy to learn more. By continuing to use the site, you agree to this use of cookies and data.
  • In United Kingdom
  • List of Countries
  • For 7 days
  • Water Temperature
  • Weather Map
  • Weather Widgets
  • user-avatar
    Login

    Hourly Weather Szczecin

    Today, 19 September, Thursday

    Time Temperature Precipitation Wind Pressure Humidity
    00:00 +7°C° 0 mm 4 mps 763 mmHg 90%
    01:00 +6°C° 0 mm 4 mps 764 mmHg 93%
    02:00 +6°C° 0 mm 4 mps 764 mmHg 93%
    03:00 +6°C° 0 mm 4 mps 764 mmHg 93%
    04:00 +6°C° 0 mm 4 mps 764 mmHg 93%
    05:00 +6°C° 0 mm 4 mps 764 mmHg 91%
    06:00 +7°C° 0 mm 4 mps 765 mmHg 90%
    07:00 +7°C° 0 mm 4 mps 765 mmHg 87%
    08:00 +10°C° 0.3 mm 4 mps 765 mmHg 80%
    09:00 +12°C° 0.3 mm 4 mps 766 mmHg 72%
    10:00 +13°C° 0.3 mm 4 mps 766 mmHg 64%
    11:00 +14°C° 0.2 mm 4 mps 766 mmHg 60%
    12:00 +15°C° 0.2 mm 4 mps 766 mmHg 55%
    13:00 +15°C° 0.2 mm 4 mps 766 mmHg 51%
    14:00 +15°C° 0 mm 4 mps 766 mmHg 51%
    15:00 +15°C° 0 mm 4 mps 766 mmHg 51%
    16:00 +15°C° 0 mm 4 mps 766 mmHg 50%
    17:00 +13°C° 0 mm 4 mps 766 mmHg 58%
    18:00 +11°C° 0 mm 3 mps 766 mmHg 65%
    19:00 +10°C° 0 mm 3 mps 767 mmHg 72%
    20:00 +9°C° 0 mm 3 mps 767 mmHg 75%
    21:00 +9°C° 0 mm 3 mps 767 mmHg 79%
    22:00 +8°C° 0 mm 3 mps 767 mmHg 82%
    23:00 +8°C° 0 mm 3 mps 767 mmHg 83%

    Tomorrow, 20 September, Friday

    Time Temperature Precipitation Wind Pressure Humidity
    00:00 +7°C° 0 mm 3 mps 767 mmHg 84%
    01:00 +7°C° 0 mm 2 mps 767 mmHg 85%
    02:00 +7°C° 0 mm 2 mps 767 mmHg 86%
    03:00 +6°C° 0 mm 2 mps 767 mmHg 87%
    04:00 +6°C° 0 mm 2 mps 767 mmHg 89%
    05:00 +7°C° 0 mm 2 mps 767 mmHg 87%
    06:00 +7°C° 0 mm 3 mps 767 mmHg 86%
    07:00 +8°C° 0 mm 3 mps 767 mmHg 85%
    08:00 +10°C° 0 mm 3 mps 767 mmHg 78%
    09:00 +11°C° 0 mm 3 mps 767 mmHg 72%
    10:00 +13°C° 0 mm 4 mps 767 mmHg 65%
    11:00 +13°C° 0 mm 4 mps 767 mmHg 67%
    12:00 +13°C° 0 mm 4 mps 767 mmHg 68%
    13:00 +13°C° 0 mm 4 mps 766 mmHg 70%
    14:00 +13°C° 0 mm 4 mps 766 mmHg 70%
    15:00 +13°C° 0 mm 4 mps 766 mmHg 70%
    16:00 +14°C° 0 mm 4 mps 765 mmHg 71%
    17:00 +13°C° 0 mm 3 mps 765 mmHg 74%
    18:00 +13°C° 0 mm 3 mps 765 mmHg 78%
    19:00 +12°C° 0 mm 3 mps 765 mmHg 82%
    20:00 +12°C° 0 mm 3 mps 765 mmHg 86%
    21:00 +11°C° 0 mm 3 mps 765 mmHg 90%
    22:00 +10°C° 0 mm 3 mps 765 mmHg 93%
    23:00 +10°C° 0 mm 3 mps 765 mmHg 94%

    Day after tomorrow, 21 September, Saturday

    Time Temperature Precipitation Wind Pressure Humidity
    00:00 +10°C° 0 mm 3 mps 765 mmHg 95%
    01:00 +9°C° 0 mm 3 mps 764 mmHg 96%
    02:00 +9°C° 0 mm 3 mps 764 mmHg 96%
    03:00 +9°C° 0 mm 3 mps 764 mmHg 97%
    04:00 +9°C° 0 mm 3 mps 764 mmHg 97%
    05:00 +9°C° 0 mm 3 mps 764 mmHg 96%
    06:00 +10°C° 0 mm 3 mps 764 mmHg 95%
    07:00 +10°C° 0 mm 3 mps 764 mmHg 94%
    08:00 +12°C° 0 mm 3 mps 764 mmHg 86%
    09:00 +14°C° 0 mm 3 mps 764 mmHg 78%
    10:00 +17°C° 0 mm 3 mps 764 mmHg 70%
    11:00 +18°C° 0 mm 3 mps 764 mmHg 65%
    12:00 +19°C° 0 mm 3 mps 764 mmHg 59%
    13:00 +20°C° 0 mm 3 mps 763 mmHg 54%
    14:00 +20°C° 0 mm 2 mps 763 mmHg 54%
    15:00 +21°C° 0 mm 2 mps 763 mmHg 53%
    16:00 +21°C° 0 mm 2 mps 762 mmHg 53%
    17:00 +20°C° 0 mm 1 mps 762 mmHg 61%
    18:00 +18°C° 0 mm 1 mps 762 mmHg 68%
    19:00 +14°C° 0 mm 0 mps 762 mmHg 75%
    20:00 +14°C° 0 mm 1 mps 762 mmHg 77%
    21:00 +14°C° 0 mm 1 mps 762 mmHg 80%
    22:00 +13°C° 0 mm 1 mps 762 mmHg 82%
    23:00 +13°C° 0 mm 1 mps 762 mmHg 82%

    22 September, Sunday

    Time Temperature Precipitation Wind Pressure Humidity
    00:00 +12°C° 0 mm 1 mps 762 mmHg 83%
    01:00 +12°C° 0 mm 1 mps 762 mmHg 84%
    02:00 +12°C° 0 mm 1 mps 761 mmHg 85%
    03:00 +11°C° 0 mm 1 mps 761 mmHg 86%
    04:00 +11°C° 0 mm 1 mps 761 mmHg 87%
    05:00 +10°C° 0 mm 2 mps 761 mmHg 85%
    06:00 +12°C° 0 mm 2 mps 761 mmHg 83%
    07:00 +12°C° 0 mm 2 mps 761 mmHg 82%
    08:00 +14°C° 0 mm 2 mps 761 mmHg 72%
    09:00 +17°C° 0 mm 3 mps 761 mmHg 63%
    10:00 +19°C° 0 mm 3 mps 761 mmHg 54%
    11:00 +20°C° 0 mm 3 mps 760 mmHg 49%
    12:00 +21°C° 0 mm 4 mps 760 mmHg 45%
    13:00 +22°C° 0 mm 4 mps 760 mmHg 40%
    14:00 +22°C° 0 mm 4 mps 759 mmHg 42%
    15:00 +22°C° 0 mm 4 mps 759 mmHg 44%
    16:00 +22°C° 0 mm 4 mps 758 mmHg 45%
    17:00 +20°C° 0 mm 4 mps 758 mmHg 52%
    18:00 +18°C° 0 mm 4 mps 758 mmHg 58%
    19:00 +16°C° 0 mm 3 mps 758 mmHg 64%
    20:00 +16°C° 0 mm 3 mps 758 mmHg 63%
    21:00 +14°C° 0 mm 4 mps 758 mmHg 61%
    22:00 +14°C° 0 mm 4 mps 757 mmHg 60%
    23:00 +14°C° 0 mm 4 mps 757 mmHg 60%

    23 September, Monday

    Time Temperature Precipitation Wind Pressure Humidity
    00:00 +13°C° 0 mm 3 mps 757 mmHg 61%
    01:00 +13°C° 0 mm 3 mps 757 mmHg 61%
    02:00 +13°C° 0 mm 3 mps 757 mmHg 62%
    03:00 +12°C° 0 mm 3 mps 756 mmHg 64%
    04:00 +12°C° 0 mm 3 mps 756 mmHg 65%
    05:00 +12°C° 0 mm 3 mps 756 mmHg 67%
    06:00 +13°C° 0 mm 3 mps 756 mmHg 68%
    07:00 +13°C° 0 mm 3 mps 755 mmHg 69%
    08:00 +14°C° 0 mm 3 mps 755 mmHg 65%
    09:00 +16°C° 0 mm 3 mps 755 mmHg 62%
    10:00 +18°C° 0 mm 3 mps 755 mmHg 58%
    11:00 +19°C° 0 mm 3 mps 755 mmHg 54%
    12:00 +20°C° 0 mm 2 mps 755 mmHg 50%
    13:00 +21°C° 0 mm 2 mps 754 mmHg 46%
    14:00 +22°C° 0 mm 1 mps 754 mmHg 48%
    15:00 +22°C° 0 mm 1 mps 754 mmHg 49%
    16:00 +22°C° 0 mm 1 mps 754 mmHg 50%
    17:00 +21°C° 0 mm 1 mps 754 mmHg 55%
    18:00 +19°C° 0 mm 1 mps 754 mmHg 59%
    19:00 +18°C° 0 mm 1 mps 754 mmHg 64%
    20:00 +18°C° 0 mm 1 mps 755 mmHg 65%
    21:00 +18°C° 0 mm 1 mps 755 mmHg 65%
    22:00 +18°C° 0 mm 1 mps 755 mmHg 66%
    23:00 +16°C° 0.1 mm 2 mps 755 mmHg 72%

    24 September, Tuesday

    Time Temperature Precipitation Wind Pressure Humidity
    00:00 +16°C° 0.1 mm 2 mps 755 mmHg 77%
    01:00 +15°C° 0.1 mm 2 mps 755 mmHg 83%
    02:00 +15°C° 0.4 mm 2 mps 755 mmHg 87%
    03:00 +15°C° 0.4 mm 2 mps 755 mmHg 90%
    04:00 +15°C° 0.4 mm 2 mps 755 mmHg 94%
    05:00 +15°C° 0.4 mm 2 mps 755 mmHg 94%
    06:00 +15°C° 0.4 mm 2 mps 755 mmHg 95%
    07:00 +15°C° 0.4 mm 2 mps 755 mmHg 95%
    08:00 +15°C° 0.2 mm 2 mps 756 mmHg 94%
    09:00 +16°C° 0.2 mm 2 mps 756 mmHg 92%
    10:00 +16°C° 0.2 mm 3 mps 756 mmHg 91%
    11:00 +16°C° 0.2 mm 3 mps 756 mmHg 90%
    12:00 +16°C° 0.2 mm 3 mps 756 mmHg 90%
    13:00 +16°C° 0.2 mm 3 mps 756 mmHg 89%
    14:00 +16°C° 0.2 mm 3 mps 756 mmHg 90%
    15:00 +16°C° 0.2 mm 3 mps 756 mmHg 91%
    16:00 +14°C° 0.2 mm 3 mps 756 mmHg 92%
    17:00 +15°C° 0.1 mm 2 mps 756 mmHg 93%
    18:00 +15°C° 0.1 mm 2 mps 756 mmHg 94%
    19:00 +14°C° 0.1 mm 2 mps 756 mmHg 95%
    20:00 +14°C° 0.2 mm 2 mps 756 mmHg 95%
    21:00 +14°C° 0.2 mm 1 mps 756 mmHg 95%
    22:00 +14°C° 0.2 mm 1 mps 756 mmHg 95%
    23:00 +14°C° 0 mm 1 mps 756 mmHg 94%
    Show more